�������l�o���
Date,Time,MP-1(��Sv/h),MP-2(��Sv/h),MP-3(��Sv/h),MP-4(��Sv/h),MP-5(��Sv/h),MP-6(��Sv/h),MP-7(��Sv/h),MP-8(��Sv/h),����,����(m/s),���J
2018/12/05,00:00,0.788,1.180,0.831,1.480,1.068,0.458,0.805,0.761,���k��,4.3,��
2018/12/05,00:10,0.790,1.177,0.834,1.478,1.069,0.458,0.806,0.764,�k��,4.2,��
2018/12/05,00:20,0.787,1.177,0.833,1.480,1.066,0.456,0.807,0.760,���k��,4.9,��
2018/12/05,00:30,0.786,1.181,0.834,1.480,1.064,0.456,0.805,0.762,���k��,5.7,��
2018/12/05,00:40,0.787,1.180,0.833,1.482,1.067,0.456,0.806,0.759,���k��,7.4,��
2018/12/05,00:50,0.789,1.178,0.835,1.481,1.067,0.454,0.805,0.759,���k��,7.6,��
2018/12/05,01:00,0.788,1.178,0.835,1.479,1.066,0.455,0.804,0.761,�k��,5.9,��
2018/12/05,01:10,0.788,1.180,0.833,1.481,1.066,0.455,0.806,0.758,�k��,6.0,��
2018/12/05,01:20,0.788,1.179,0.832,1.482,1.069,0.455,0.805,0.759,�k��,6.5,��
2018/12/05,01:30,0.788,1.179,0.833,1.480,1.069,0.453,0.804,0.759,�k��,6.4,��
2018/12/05,01:40,0.789,1.178,0.835,1.484,1.069,0.454,0.805,0.759,�k��,7.6,��
2018/12/05,01:50,0.789,1.177,0.833,1.481,1.068,0.455,0.804,0.760,�k��,6.2,��
2018/12/05,02:00,0.787,1.178,0.833,1.480,1.067,0.454,0.806,0.760,�k��,7.8,��
2018/12/05,02:10,0.788,1.178,0.833,1.481,1.069,0.455,0.806,0.762,�k��,8.9,��
2018/12/05,02:20,0.787,1.178,0.833,1.482,1.067,0.454,0.805,0.761,�k��,9.7,��
2018/12/05,02:30,0.787,1.176,0.832,1.483,1.069,0.457,0.805,0.761,�k��,11.6,��
2018/12/05,02:40,0.788,1.177,0.832,1.482,1.071,0.455,0.804,0.763,�k��,11.8,��
2018/12/05,02:50,0.789,1.178,0.834,1.484,1.068,0.457,0.804,0.760,�k��,12.1,��
2018/12/05,03:00,0.787,1.181,0.832,1.483,1.067,0.453,0.804,0.763,�k��,11.9,��
2018/12/05,03:10,0.788,1.180,0.835,1.485,1.067,0.455,0.803,0.759,�k��,14.1,��
2018/12/05,03:20,0.790,1.181,0.834,1.484,1.069,0.456,0.803,0.760,�k��,14.1,��
2018/12/05,03:30,0.786,1.181,0.833,1.482,1.069,0.455,0.805,0.758,�k��,15.2,��
2018/12/05,03:40,0.789,1.181,0.834,1.488,1.067,0.456,0.805,0.759,�k��,14.9,��
2018/12/05,03:50,0.787,1.182,0.834,1.486,1.069,0.456,0.804,0.761,�k��,16.1,��
2018/12/05,04:00,0.789,1.183,0.834,1.487,1.069,0.456,0.807,0.760,�k��,15.7,��
2018/12/05,04:10,0.788,1.182,0.835,1.485,1.066,0.457,0.803,0.761,�k��,16.1,��
2018/12/05,04:20,0.788,1.183,0.836,1.481,1.067,0.457,0.805,0.759,�k��,16.1,��
2018/12/05,04:30,0.789,1.181,0.834,1.485,1.066,0.456,0.804,0.759,�k��,15.8,��
2018/12/05,04:40,0.788,1.182,0.836,1.489,1.067,0.457,0.805,0.761,�k��,16.3,��
2018/12/05,04:50,0.789,1.182,0.836,1.487,1.067,0.457,0.804,0.760,�k��,13.0,��
2018/12/05,05:00,0.789,1.181,0.835,1.488,1.067,0.457,0.806,0.760,�k��,11.3,��
2018/12/05,05:10,0.787,1.179,0.835,1.489,1.067,0.458,0.803,0.757,�k��,8.4,��
2018/12/05,05:20,0.787,1.182,0.836,1.489,1.068,0.457,0.806,0.759,�k��,10.0,��
2018/12/05,05:30,0.788,1.181,0.833,1.490,1.068,0.455,0.804,0.762,�k��,7.7,��
2018/12/05,05:40,0.788,1.183,0.835,1.490,1.064,0.457,0.805,0.762,�k��,10.5,��
2018/12/05,05:50,0.787,1.182,0.832,1.487,1.067,0.457,0.804,0.762,�k��,8.9,��
2018/12/05,06:00,0.789,1.184,0.834,1.489,1.068,0.456,0.805,0.762,�k��,9.1,��
2018/12/05,06:10,0.788,1.181,0.835,1.487,1.068,0.455,0.804,0.763,�k��,9.9,��
2018/12/05,06:20,0.788,1.183,0.834,1.491,1.070,0.456,0.806,0.762,�k��,11.6,��
2018/12/05,06:30,0.787,1.182,0.836,1.491,1.071,0.457,0.804,0.763,�k��,10.9,��
2018/12/05,06:40,0.788,1.185,0.834,1.490,1.071,0.458,0.805,0.762,�k��,11.1,��
2018/12/05,06:50,0.788,1.185,0.833,1.490,1.069,0.457,0.805,0.763,�k��,10.2,��
2018/12/05,07:00,0.790,1.184,0.835,1.490,1.068,0.457,0.804,0.764,�k��,14.1,��
2018/12/05,07:10,0.788,1.185,0.834,1.490,1.070,0.457,0.804,0.762,�k��,13.3,��
2018/12/05,07:20,0.785,1.186,0.835,1.489,1.070,0.458,0.807,0.762,�k��,11.9,��
2018/12/05,07:30,0.786,1.186,0.833,1.489,1.068,0.456,0.804,0.762,�k��,8.8,��
2018/12/05,07:40,0.787,1.183,0.835,1.490,1.071,0.456,0.805,0.762,�k��,9.3,��
2018/12/05,07:50,0.788,1.184,0.834,1.489,1.070,0.457,0.805,0.761,�k��,9.1,��
2018/12/05,08:00,0.788,1.183,0.836,1.490,1.069,0.456,0.805,0.763,�k��,10.5,��
2018/12/05,08:10,0.786,1.182,0.834,1.492,1.070,0.457,0.804,0.762,�k��,8.5,��
2018/12/05,08:20,0.787,1.183,0.831,1.491,1.070,0.456,0.805,0.762,�k�k��,4.9,��
2018/12/05,08:30,0.789,1.181,0.832,1.490,1.069,0.456,0.805,0.761,�k�k��,6.0,��
2018/12/05,08:40,0.788,1.182,0.833,1.491,1.069,0.456,0.803,0.762,�k,4.1,��
2018/12/05,08:50,0.788,1.181,0.835,1.490,1.070,0.457,0.805,0.762,�k�k��,5.1,��
2018/12/05,09:00,0.788,1.179,0.831,1.488,1.071,0.456,0.804,0.763,�k�k��,5.8,��
2018/12/05,09:10,0.786,1.179,0.834,1.490,1.070,0.455,0.805,0.764,�k�k��,6.1,��
2018/12/05,09:20,0.787,1.178,0.832,1.489,1.070,0.457,0.804,0.761,�k��,6.9,��
2018/12/05,09:30,0.788,1.182,0.834,1.489,1.069,0.456,0.805,0.764,�k��,5.3,��
2018/12/05,09:40,0.787,1.179,0.830,1.489,1.069,0.455,0.804,0.763,�k��,4.1,��
2018/12/05,09:50,0.790,1.177,0.831,1.490,1.072,0.456,0.805,0.763,�k��,5.3,��
2018/12/05,10:00,0.787,1.176,0.832,1.491,1.070,0.454,0.805,0.762,�k��,5.5,��
2018/12/05,10:10,0.786,1.176,0.831,1.492,1.071,0.455,0.805,0.764,�k��,6.6,��
2018/12/05,10:20,0.788,1.175,0.830,1.491,1.068,0.455,0.806,0.761,�k�k��,7.0,��
2018/12/05,10:30,0.787,1.179,0.834,1.493,1.069,0.454,0.805,0.762,�k�k��,6.6,��
2018/12/05,10:40,0.789,1.179,0.834,1.491,1.071,0.456,0.805,0.763,�k�k��,6.0,��
2018/12/05,10:50,0.789,1.177,0.833,1.491,1.071,0.455,0.805,0.764,�k�k��,4.7,��
2018/12/05,11:00,0.789,1.182,0.836,1.489,1.070,0.456,0.804,0.762,�k,4.6,��
2018/12/05,11:10,0.789,1.183,0.836,1.492,1.070,0.455,0.806,0.763,�k�k��,6.5,��
2018/12/05,11:20,0.789,1.177,0.836,1.492,1.070,0.454,0.806,0.762,�k�k��,6.8,��
2018/12/05,11:30,0.789,1.176,0.833,1.490,1.072,0.456,0.805,0.763,�k�k��,5.9,��
2018/12/05,11:40,0.789,1.178,0.836,1.493,1.068,0.454,0.804,0.761,�k��,7.8,��
2018/12/05,11:50,0.790,1.178,0.834,1.493,1.070,0.454,0.805,0.763,�k��,6.6,��
2018/12/05,12:00,0.787,1.182,0.834,1.492,1.073,0.454,0.806,0.761,�k��,6.2,��
2018/12/05,12:10,0.789,1.181,0.836,1.495,1.071,0.455,0.806,0.762,�k��,5.9,��
2018/12/05,12:20,0.789,1.179,0.836,1.496,1.071,0.456,0.804,0.763,�k�k��,5.5,��
2018/12/05,12:30,0.786,1.177,0.836,1.492,1.070,0.455,0.803,0.761,�k�k��,5.7,��
2018/12/05,12:40,0.789,1.179,0.835,1.493,1.071,0.455,0.805,0.761,�k��,7.7,��
2018/12/05,12:50,0.786,1.178,0.833,1.493,1.071,0.454,0.804,0.761,�k��,8.6,��
2018/12/05,13:00,0.784,1.178,0.835,1.494,1.072,0.453,0.804,0.759,�k��,8.4,��
2018/12/05,13:10,0.786,1.177,0.832,1.494,1.070,0.455,0.807,0.759,�k��,8.4,��
2018/12/05,13:20,0.787,1.175,0.834,1.493,1.071,0.454,0.804,0.759,�k��,6.2,��
2018/12/05,13:30,0.787,1.179,0.834,1.496,1.069,0.454,0.807,0.759,�k��,6.5,��
2018/12/05,13:40,0.787,1.177,0.834,1.491,1.072,0.455,0.804,0.760,�k��,6.6,��
2018/12/05,13:50,0.787,1.173,0.837,1.494,1.071,0.456,0.803,0.760,�k��,4.9,��
2018/12/05,14:00,0.788,1.180,0.837,1.495,1.072,0.456,0.805,0.760,�k��,6.0,��
2018/12/05,14:10,0.788,1.179,0.835,1.496,1.072,0.456,0.806,0.762,�k��,6.6,��
2018/12/05,14:20,0.787,1.178,0.836,1.494,1.074,0.455,0.805,0.763,�k�k��,5.7,��
2018/12/05,14:30,0.788,1.177,0.833,1.493,1.074,0.455,0.806,0.762,�k�k��,4.8,��
2018/12/05,14:40,0.786,1.178,0.833,1.496,1.074,0.456,0.807,0.760,�k�k��,4.8,��
2018/12/05,14:50,0.786,1.176,0.833,1.496,1.077,0.455,0.805,0.761,�k�k��,4.6,��
2018/12/05,15:00,0.786,1.182,0.833,1.496,1.073,0.455,0.805,0.761,�k��,6.4,��
2018/12/05,15:10,0.788,1.182,0.832,1.494,1.069,0.455,0.805,0.760,�k��,7.7,��
2018/12/05,15:20,0.784,1.185,0.833,1.496,1.069,0.455,0.806,0.760,�k��,6.9,��
2018/12/05,15:30,0.785,1.184,0.833,1.496,1.069,0.455,0.804,0.762,�k��,6.4,��
2018/12/05,15:40,0.787,1.188,0.832,1.497,1.071,0.455,0.804,0.762,�k��,5.6,��
2018/12/05,15:50,0.786,1.185,0.834,1.494,1.072,0.454,0.804,0.762,�k��,6.7,��
2018/12/05,16:00,0.786,1.187,0.834,1.494,1.070,0.454,0.804,0.762,�k��,7.4,��
2018/12/05,16:10,0.785,1.185,0.836,1.494,1.067,0.454,0.804,0.762,�k��,7.0,��
2018/12/05,16:20,0.786,1.187,0.835,1.496,1.070,0.455,0.803,0.762,�k�k��,6.1,��
2018/12/05,16:30,0.787,1.191,0.835,1.494,1.070,0.455,0.804,0.761,�k�k��,8.9,��
2018/12/05,16:40,0.787,1.188,0.833,1.494,1.073,0.452,0.804,0.760,�k�k��,9.7,��
2018/12/05,16:50,0.787,1.189,0.834,1.496,1.074,0.454,0.804,0.762,�k��,12.1,��
2018/12/05,17:00,0.786,1.187,0.834,1.494,1.074,0.453,0.804,0.761,�k��,10.9,��
2018/12/05,17:10,0.787,1.187,0.835,1.495,1.074,0.453,0.802,0.760,�k�k��,9.0,��
2018/12/05,17:20,0.786,1.189,0.834,1.495,1.075,0.454,0.804,0.761,�k�k��,8.6,��
2018/12/05,17:30,0.787,1.191,0.835,1.496,1.074,0.454,0.803,0.760,�k�k��,9.2,��
2018/12/05,17:40,0.785,1.188,0.833,1.497,1.073,0.454,0.804,0.762,�k��,7.2,��
2018/12/05,17:50,0.787,1.189,0.836,1.496,1.072,0.454,0.803,0.760,�k��,7.2,��
2018/12/05,18:00,0.787,1.188,0.833,1.496,1.072,0.453,0.805,0.761,�k��,6.6,��
2018/12/05,18:10,0.788,1.189,0.835,1.497,1.071,0.453,0.804,0.759,�k�k��,6.6,��
2018/12/05,18:20,0.789,1.190,0.834,1.496,1.071,0.453,0.804,0.762,�k�k��,6.5,��
2018/12/05,18:30,0.787,1.190,0.833,1.497,1.075,0.453,0.804,0.761,�k�k��,5.0,��
2018/12/05,18:40,0.787,1.191,0.833,1.496,1.071,0.453,0.805,0.762,�k�k��,4.3,��
2018/12/05,18:50,0.786,1.189,0.835,1.496,1.073,0.454,0.805,0.761,�k�k��,4.6,��
2018/12/05,19:00,0.787,1.189,0.834,1.493,1.072,0.453,0.805,0.760,�k�k��,4.1,��
2018/12/05,19:10,0.784,1.191,0.835,1.497,1.073,0.454,0.807,0.761,�k,4.3,��
2018/12/05,19:20,0.786,1.188,0.834,1.495,1.071,0.453,0.806,0.761,�k,5.3,��
2018/12/05,19:30,0.785,1.191,0.833,1.496,1.073,0.453,0.806,0.761,�k�k��,5.4,��
2018/12/05,19:40,0.786,1.187,0.834,1.494,1.071,0.455,0.804,0.759,�k�k��,5.1,��
2018/12/05,19:50,0.786,1.189,0.834,1.497,1.072,0.454,0.805,0.760,�k�k��,5.8,��
2018/12/05,20:00,0.787,1.188,0.834,1.494,1.074,0.453,0.802,0.760,�k�k��,5.6,��
2018/12/05,20:10,0.786,1.189,0.833,1.495,1.073,0.452,0.805,0.760,�k�k��,5.0,��
2018/12/05,20:20,0.785,1.188,0.835,1.493,1.074,0.454,0.805,0.762,�k��,5.8,��
2018/12/05,20:30,0.787,1.191,0.835,1.496,1.074,0.452,0.805,0.761,�k��,5.8,��
2018/12/05,20:40,0.788,1.190,0.836,1.496,1.074,0.454,0.805,0.759,�k��,3.9,��
2018/12/05,20:50,0.787,1.186,0.834,1.495,1.073,0.453,0.804,0.760,�k��,4.1,��
2018/12/05,21:00,0.788,1.187,0.834,1.494,1.071,0.453,0.805,0.760,�k��,4.4,��
2018/12/05,21:10,0.787,1.189,0.836,1.495,1.074,0.453,0.804,0.762,�k��,3.6,��
2018/12/05,21:20,0.785,1.188,0.834,1.493,1.072,0.452,0.803,0.761,�k,2.0,��
2018/12/05,21:30,0.785,1.192,0.835,1.495,1.073,0.453,0.803,0.760,�k,3.5,��
2018/12/05,21:40,0.785,1.190,0.833,1.495,1.072,0.454,0.805,0.760,�k,4.6,��
2018/12/05,21:50,0.786,1.189,0.833,1.497,1.074,0.455,0.803,0.759,�k�k��,4.6,��
2018/12/05,22:00,0.788,1.191,0.833,1.495,1.073,0.453,0.802,0.762,�k,3.0,��
2018/12/05,22:10,0.786,1.191,0.834,1.495,1.074,0.452,0.805,0.763,�k�k��,3.6,��
2018/12/05,22:20,0.788,1.187,0.835,1.495,1.073,0.453,0.803,0.761,�k�k��,3.6,��
2018/12/05,22:30,0.785,1.191,0.833,1.494,1.074,0.453,0.804,0.761,�k��,2.9,��
2018/12/05,22:40,0.786,1.189,0.835,1.496,1.072,0.452,0.803,0.760,�k��,2.9,��
2018/12/05,22:50,0.787,1.189,0.836,1.494,1.075,0.452,0.802,0.760,�k��,3.5,��
2018/12/05,23:00,0.787,1.187,0.836,1.497,1.073,0.455,0.804,0.760,�k��,2.0,��
2018/12/05,23:10,0.788,1.187,0.834,1.499,1.072,0.453,0.803,0.760,�k��,2.0,��
2018/12/05,23:20,0.786,1.188,0.835,1.497,1.075,0.453,0.803,0.760,�k�k��,2.6,��
2018/12/05,23:30,0.786,1.187,0.834,1.496,1.074,0.454,0.804,0.761,�k�k��,2.3,��
2018/12/05,23:40,0.785,1.189,0.834,1.496,1.074,0.454,0.803,0.762,�k�k��,2.0,��
2018/12/05,23:50,0.786,1.189,0.834,1.496,1.073,0.453,0.804,0.761,�k,2.5,��
